Regional Weather Roundup
Issued by NWS Jackson, KY

Home | Current Version | Previous Version | Text Only | Print | Product List | Glossary Off
Versions: 1 2 3 4 5 6 7 8 9 10 11 12 13 14 15 16 17 18 19 20 21 22 23 24 25 26 27 28 29 30 31 32 33 34 35 36 37 38 39 40 41 42 43 44 45 46 47 48 49 50

893
ASUS43 KJKL 210410
RWRJKL

EAST KENTUCKY HOURLY WEATHER ROUNDUP
NATIONAL WEATHER SERVICE JACKSON KY
1100 PM EST SAT JAN 20 2018

NOTE: "FAIR" INDICATES FEW OR NO CLOUDS BELOW 12,000 FEET WITH
NO SIGNIFICANT WEATHER AND/OR OBSTRUCTIONS TO VISIBILITY.

* THESE REPORTS ARE NOT UNDER NWS QUALITY CONTROL AND MAY NOT
  REPORT WEATHER SUCH AS PRECIPITATION AND FOG.

KYZ079-080-083-085-087-088-110-112-115-119-120-210500
...EASTERN KENTUCKY...

CITY           SKY/WX    TMP DP  RH WIND       PRES   REMARKS
JACKSON          N/A     48  36  63 S5        30.18R
LONDON           N/A     41  33  73 SE3       30.19S
SOMERSET*      CLOUDY    39  34  81 CALM      30.20S
MONTICELLO*      N/A     37  34  89 VRB7      30.21R WCI  32
WILLIAMSBURG*  MOCLDY    46  32  57 SE7       30.20S
MIDDLESBORO*   MOCLDY    34  32  91 CALM      30.24R
HARLAN APT*      N/A     39  32  75 CALM      30.22R
PIKE CO APT*     N/A     47  37  68 CALM      30.18S
BIG SANDY APT*   N/A     49  37  63 SW3       30.18S
MOREHEAD APT*  CLOUDY    50  43  76 S6        30.16S
ASHLAND*       CLOUDY    39  34  82 E3        30.16S
$$

KYZ035-036-041-042-044-050-067-078-099-210500
...CENTRAL KENTUCKY...

CITY           SKY/WX    TMP DP  RH WIND       PRES   REMARKS
MT STERLING*     N/A     46  41  81 SW8       30.15F
FLEMING/MASON* CLOUDY    44  42  95 S5        30.15S
DANVILLE*      CLOUDY    45  37  76 SW8       30.16F
LEXINGTON      CLOUDY    48  39  71 S9        30.13F
FRANKFORT        N/A     47  39  74 S5        30.11F
LOUISVILLE     MOCLDY    51  40  65 S7        30.10F
LEBANON*         N/A     50  36  57 S10       30.14S
GLASGOW*       CLOUDY    51  34  52 S6        30.15S
BOWLING GREEN  CLOUDY    54  38  54 SW7       30.15R
$$

KYZ091>093-OHZ055-061-077-WVZ005-015-034-035-042-210500
...SOUTHERN OHIO/WEST VIRGINIA...

CITY           SKY/WX    TMP DP  RH WIND       PRES   REMARKS
COVINGTON      CLOUDY    45  44  97 S6        30.10S
COLUMBUS       LGT RAIN  42  33  70 SW5       30.12R
DAYTON         CLOUDY    40  39  97 SW5       30.11S
WILMINGTON     CLOUDY    38  38 100 SW8       30.11R FOG     WCI  32
HUNTINGTON     CLOUDY    50  39  66 S5        30.16S
CHARLESTON     CLOUDY    43  38  82 CALM      30.17R
BECKLEY        CLOUDY    44  35  70 W6        30.19R
BLUEFIELD      CLOUDY    42  34  73 W9        30.19S
LOGAN CO APT*  CLOUDY    48  37  66 CALM      30.18S
$$

VAZ002-007-008-TNZ017-027-036-066-071-210500
...SOUTHWEST VIRGINIA/EAST TENNESSEE...

CITY           SKY/WX    TMP DP  RH WIND       PRES   REMARKS
WISE*            N/A     41  34  75 SW12      30.21S
JONESVILLE*      N/A     34  32  93 CALM      30.26R
ABINGDON*        N/A     35  32  88 CALM      30.23S
BRISTOL          N/A     35  33  92 CALM      30.23S
MORRISTOWN*    PTCLDY    41  32  70 CALM      30.23R
SEVIERVILLE*   CLEAR     39  37  93 CALM      30.24R
KNOXVILLE        N/A     44  37  76 CALM      30.23R
LAFOLLETTE*    PTCLDY    34  30  86 CALM      30.26S
OAK RIDGE        N/A     38  34  85 CALM      30.25R
CROSSVILLE     MOCLDY    46  32  58 S5        30.22S
NASHVILLE      MOCLDY    56  37  49 S10       30.16F
$$

...KEY TO REMARKS...
VSB - VISIBILITY IN MILES
WCI - WIND CHILL INDEX
HX  - HEAT INDEX

$$




USA.gov is the U.S. government's official web portal to all federal, state and local government web resources and services.